Вернуться в каталог

STARLINK-34925

АктивенСвязьSSO
NORAD 65249·PAYLOAD·🇺🇸 United States

Запущен Aug 18, 2025 с Vandenberg Space Force Base

Loading…

Ближайшие Пролёты (ближайшие 24 часа)

TLE

СвежийSource: CelesTrak SupGP

Эпоха: Sep 15, 2026, 03:45 UTC

1 65249C 25179Q   26258.15673611 -.00022456  00000+0 -69705-3 0  2581
2 65249  97.2829 297.5606 0001065  89.2312 279.6142 15.33453333    12

Отслеживайте STARLINK-34925 в реальном времени с AllMySat

Download on the App Store